FW8074 Weather Reports


Display with metric or nautical units.
time (UTC)temp
F
wind
direction
speed
MPH
gust
MPH
rain 1hr
in
rain 24hr
in
rain mn
in
humidity
%
barometer
mb
20260508080054 53 0 0.0 0.0 0.00 1.00 0.00 97 1010.8
20260508074554 53 0 0.0 0.0 0.00 1.01 0.00 97 1010.6
20260508073055 54 0 0.0 0.0 0.00 1.01 0.00 97 1010.7
20260508071555 54 0 0.0 0.0 0.00 1.01 0.00 97 1010.6
20260508070056 54 0 0.0 0.0 0.00 1.01 0.00 96 1010.7
20260508064606 55 0 0.0 0.0 0.00 1.01 0.00 96 1010.5
20260508063054 55 0 0.0 0.0 0.00 1.01 0.00 96 1010.5
20260508061558 55 0 0.0 1.0 0.00 1.01 0.00 96 1010.7
20260508060058 56 0 0.0 1.0 0.00 1.01 0.00 96 1010.7
20260508054604 56 0 0.0 0.0 0.00 1.01 0.00 96 1010.8
20260508053055 55 0 0.0 0.0 0.00 1.01 0.00 96 1010.7
20260508051602 55 0 0.0 0.0 0.00 1.01 0.00 95 1010.7
20260508050100 56 0 0.0 0.0 0.00 1.01 0.00 95 1010.7
20260508044556 56 0 0.0 0.0 0.00 1.02 0.00 94 1010.6
20260508043101 56 0 0.0 1.0 0.00 1.02 0.00 94 1010.6
20260508041600 57 0 0.0 2.0 0.00 1.02 0.00 93 1010.5
20260508040101 57 37 0.0 2.0 0.00 1.02 0.00 93 1010.2
20260508034557 58 0 0.0 2.0 0.00 1.02 1.02 94 1010.4
20260508033055 58 0 0.0 5.0 0.00 1.02 1.02 94 1010.4
20260508031558 58 0 0.0 2.0 0.00 1.02 1.02 94 1010.1
20260508030058 58 85 0.0 4.0 0.00 1.02 1.02 93 1009.8
20260508024556 59 95 0.0 8.0 0.00 1.02 1.02 92 1009.7
20260508023055 59 0 1.0 5.0 0.00 1.02 1.02 92 1009.1
20260508021558 59 0 0.0 4.0 0.00 1.02 1.02 92 1009.1
20260508020100 60 107 0.0 8.0 0.00 1.02 1.02 91 1008.9
20260508014556 61 134 0.0 6.0 0.00 1.02 1.02 90 1008.8
20260508013055 61 134 2.0 11.0 0.00 1.02 1.02 90 1008.5
20260508011555 62 150 2.0 13.0 0.00 1.02 1.02 89 1007.9
20260508010054 63 341 1.0 13.0 0.00 1.02 1.02 89 1007.0
20260508004558 64 72 3.0 12.0 0.00 1.02 1.02 87 1006.2
20260508003106 67 113 4.0 14.0 0.00 1.02 1.02 84 1005.7
20260508001558 73 0 0.0 2.0 0.00 1.02 1.02 85 1005.2
20260507234557 75 0 0.0 3.0 0.00 1.02 1.02 81 1004.3
20260507233102 76 273 1.0 3.0 0.00 1.02 1.02 79 1004.3
20260507231556 76 267 1.0 4.0 0.00 1.02 1.02 78 1004.2
20260507230100 76 260 1.0 4.0 0.00 1.02 1.02 77 1004.1
20260507224615 77 271 3.0 7.0 0.00 1.02 1.02 76 1004.2
20260507223057 77 278 2.0 7.0 0.00 1.02 1.02 76 1003.8
20260507221557 77 305 3.0 9.0 0.00 1.02 1.02 74 1003.9
20260507220057 78 302 2.0 7.0 0.00 1.02 1.02 74 1003.7
20260507214554 78 0 0.0 4.0 0.00 1.02 1.02 78 1003.6
20260507213056 77 284 4.0 8.0 0.00 1.02 1.02 78 1003.8
20260507211623 77 265 4.0 7.0 0.00 1.02 1.02 79 1004.2
20260507210057 76 279 2.0 4.0 0.00 1.02 1.02 79 1004.3
20260507204604 77 275 3.0 7.0 0.00 1.02 1.02 78 1004.2
20260507203110 77 272 3.0 7.0 0.00 1.02 1.02 78 1003.9
20260507201611 77 266 4.0 9.0 0.00 1.02 1.02 81 1004.0
20260507200103 76 254 1.0 8.0 0.00 1.02 1.02 83 1004.3
20260507194556 76 265 4.0 8.0 0.00 1.02 1.02 83 1004.4
20260507193055 76 300 2.0 6.0 0.00 1.02 1.02 84 1004.4
20260507191559 75 307 1.0 7.0 0.00 1.02 1.02 88 1004.4
20260507190055 75 276 2.0 6.0 0.00 1.02 1.02 88 1004.2
20260507184556 74 283 2.0 7.0 0.00 1.02 1.02 90 1003.9
20260507183100 73 257 1.0 6.0 0.01 1.02 1.02 90 1004.5
20260507181601 73 265 3.0 7.0 0.02 1.02 1.02 91 1004.9
20260507180055 72 278 3.0 7.0 0.03 1.02 1.02 93 1005.1
20260507174600 71 242 4.0 8.0 0.05 1.02 1.02 95 1004.8
20260507173109 70 269 3.0 7.0 0.06 1.01 1.01 98 1004.7
20260507171609 69 280 3.0 6.0 0.09 1.00 1.00 98 1004.9
20260507170106 69 282 2.0 9.0 0.12 0.99 0.99 99 1005.0
20260507164603 68 269 3.0 9.0 0.15 0.97 0.97 100 1005.0
20260507163131 68 0 2.0 4.0 0.18 0.94 0.94 100 1005.2
20260507161601 67 264 0.0 4.0 0.20 0.91 0.91 99 1005.5
20260507160100 67 0 0.0 0.0 0.20 0.87 0.87 99 1006.4
20260507154554 67 0 0.0 0.0 0.20 0.82 0.82 99 1006.4
20260507153100 67 0 0.0 0.0 0.21 0.76 0.76 99 1007.1
20260507151556 67 0 0.0 0.0 0.23 0.71 0.71 99 1007.3
20260507150056 67 0 0.0 0.0 0.28 0.67 0.67 99 1007.1
20260507144556 67 0 0.0 0.0 0.30 0.62 0.62 99 1006.7
20260507143055 67 0 0.0 0.0 0.28 0.55 0.55 99 1006.8
20260507141600 67 0 0.0 0.0 0.24 0.48 0.48 99 1006.6
20260507140110 67 0 0.0 0.0 0.15 0.39 0.39 99 1006.8
20260507134600 67 0 0.0 0.0 0.08 0.32 0.32 98 1006.8
20260507133057 67 0 0.0 0.0 0.03 0.27 0.27 98 1006.9
20260507131602 68 0 0.0 3.0 0.00 0.24 0.24 98 1006.7
20260507130056 68 265 1.0 3.0 0.00 0.24 0.24 98 1006.6
20260507124559 68 248 1.0 2.0 0.00 0.24 0.24 99 1006.4
20260507123054 67 255 1.0 4.0 0.00 0.24 0.24 98 1006.6
20260507121559 67 0 1.0 3.0 0.01 0.24 0.24 99 1006.4
20260507120058 67 242 1.0 4.0 0.03 0.24 0.24 99 1006.8
20260507114556 67 258 0.0 3.0 0.03 0.24 0.24 99 1007.1
20260507113055 67 0 0.0 3.0 0.05 0.24 0.24 99 1007.2
20260507111554 67 245 1.0 2.0 0.05 0.23 0.23 99 1007.6
20260507110057 67 240 0.0 2.0 0.04 0.21 0.21 99 1007.6
20260507104556 67 0 0.0 0.0 0.06 0.21 0.21 99 1007.8
20260507103056 67 0 0.0 0.0 0.06 0.19 0.19 99 1008.0
20260507101606 67 0 0.0 0.0 0.08 0.18 0.18 99 1008.1
20260507094602 67 0 0.0 0.0 0.11 0.15 0.15 98 1008.6
20260507093055 67 0 0.0 0.0 0.10 0.13 0.13 98 1008.2
20260507091604 67 0 0.0 0.0 0.08 0.10 0.10 98 1008.3
20260507090113 67 0 0.0 0.0 0.05 0.07 0.07 98 1008.1
20260507084555 67 0 0.0 1.0 0.03 0.04 0.04 98 1008.0
20260507083101 67 0 0.0 2.0 0.01 0.02 0.02 98 1008.0
20260507081559 67 0 0.0 1.0 0.01 0.02 0.02 98 1008.0